Location: Zagreb
(45.8000°N, 16.0000°E)
Time: 22:35:08
(UTC+01:00)

Vanguard 2 Rocket - Pass Details

Date: 02 February 2020
Orbit: 553 x 3327 km, 32.9° (Epoch: 24 February)

Event Time Altitude Azimuth Distance (km) Brightness Sun altitude
Exits shadow 05:13:47 14° 195° (SSW) 1,676 8.1 -21.7°
Maximum altitude 05:14:34 15° 182° (S) 1,683 8.3 -21.6°
Drops below altitude 10° 05:17:15 10° 147° (SSE) 2,170 9.3 -21.1°
Sets 05:21:05 0° 125° (SE) 3,463 10.9 -20.5°
